Location: Hac?musa Deresi
(39.1694°N, 32.2508°E)
Time: 23:22:03
(UTC+00:00)

Okean O Rocket - Pass Details

Date: 22 April 2026
Orbit: 612 x 635 km, 98.0° (Epoch: 9 May)

Event Time Altitude Azimuth Distance (km) Brightness Sun altitude
Exits shadow 19:15:53 43° 262° (W) 874 2.4 -27.2°
Drops below altitude 10° 19:19:59 10° 333° (NNW) 1,990 5.1 -27.8°
Sets 19:22:16 0° 341° (NNW) 2,897 6.0 -28.1°
